Regional Weather Roundup
Issued by NWS Sterling, VA

Home | Current Version | Previous Version | Graphics & Text | Print | Product List | Glossary On
Versions: 1 2 3 4 5 6 7 8 9 10 11 12 13 14 15 16 17 18 19 20 21 22 23 24 25 26 27 28 29 30 31 32 33 34 35 36 37 38 39 40 41 42 43 44 45 46 47 48 49 50
549
ASUS41 KLWX 302211
RWRLWX

REGIONAL WEATHER ROUNDUP
NATIONAL WEATHER SERVICE BALTIMORE MD/WASHINGTON DC
600 PM EDT SAT JUL 30 2016

Note: "FAIR" indicates few or no clouds below 12,000 feet
with no significant weather and/or obstructions to visibility.
 TC=TEMPERATURE CELSIUS

 * =Non NWS site. Station does not report precipitation (e.g. rain,
    snow, etc.), thunder, or fog.

DCZ001-MDZ009-015-VAZ040>042-051-053>054-302300-
WASHINGTON METRO

CITY           SKY/WX    TMP DP  RH WIND       PRES   REMARKS
WASHINGTON NAT CLOUDY    84  73  69 S20       29.92R HX  90
DULLES         TSTM      83  72  69 S10       29.91S
ANDREWS AFB    MOSUNNY   82  72  72 S10G20    29.93R
FT BELVOIR     FAIR      82  74  75 S13       29.92R
LEESBURG*      TSTM      81  79  94 S8        29.92R
MANASSAS*      PTSUNNY   82  75  78 S13       29.92R
GAITHERSBURG*  CLOUDY    79  70  73 SE6       29.96R

$$

MDZ006>007-011-014-302300-
BALTIMORE METRO

CITY           SKY/WX    TMP DP  RH WIND       PRES   REMARKS
BWI AIRPORT    CLOUDY    81  71  71 SE7       29.92R THUNDER
MD SCIENCE CTR   N/A     84  67  56 MISG      29.93S
MARTIN STATE   CLOUDY    84  72  65 SE17      29.94S
ANNAPOLIS      MOSUNNY  N/A N/A N/A CALM      29.93R
FORT MEADE*    CLOUDY    79  70  73 SE7       29.95R

$$

MDZ012-015-019>023-302300-
MARYLAND EASTERN SHORE

CITY           SKY/WX    TMP DP  RH WIND       PRES   REMARKS
OCEAN CITY     CLOUDY    81  72  74 S6        29.98R
SALISBURY      NOT AVBL
BAY BRIDGE AP* MOSUNNY   86  68  54 S18G25    29.93R
CAMBRIDGE*     MOSUNNY   81  63  54 S13       29.96R
EASTON*        PTSUNNY   84  72  65 S16G23    29.99R

$$

MDZ017>025-302300-
SOUTHERN MARYLAND

CITY           SKY/WX    TMP DP  RH WIND       PRES   REMARKS
PATUXENT RIVER CLOUDY    82  72  71 S10G21    29.95R
ST INIGOES     CLOUDY    82  74  76 SE14G20   29.94R
LEONARDTOWN*   CLOUDY    81  72  74 SE9       29.97R

$$

MDZ003>005-302300-
NORTH CENTRAL MARYLAND

CITY           SKY/WX    TMP DP  RH WIND       PRES   REMARKS
FREDERICK*     PTSUNNY   73  73 100 NE3       29.95R
HAGERSTOWN APT CLOUDY    75  71  87 E6        29.92F

$$

MDZ501>502-302300-
WESTERN MARYLAND

CITY           SKY/WX    TMP DP  RH WIND       PRES   REMARKS
OAKLAND*       CLOUDY    66  64  94 CALM      30.04S FOG
CUMBERLAND*    CLOUDY    79  72  78 NE6       29.95F

$$

VAZ025>031-302300-
SHENANDOAH VALLEY

CITY           SKY/WX    TMP DP  RH WIND       PRES   REMARKS
WINCHESTER*    PTSUNNY   79  70  73 W13G21    29.95R
FRONT ROYAL*   FAIR      77  72  83 SW5       29.91S
LURAY*         MOCLDY    75  75 100 CALM      29.93
NEW MARKET*    CLOUDY   N/A N/A N/A S6        29.91R
STAUNTON*      FAIR      85  69  58 SW9       29.93F
WAYNESBORO*    FAIR      84  71  64 SE12G17   29.95S

$$

WVZ021-048>050-054>055-302300-
EASTERN WEST VIRGINIA PANHANDLE

CITY           SKY/WX    TMP DP  RH WIND       PRES   REMARKS
MARTINSBURG    LGT RAIN  74  70  87 E9        29.93R
PETERSBURG*    FAIR      87  69  55 W9        29.92R HX  90

$$

VAZ036>039-050-302300-
CENTRAL FOOTHILLS

CITY           SKY/WX    TMP DP  RH WIND       PRES   REMARKS
CHARLOTTESVILL FAIR      79  71  76 S9        29.93R
CULPEPER*      CLOUDY    78  71  79 NW12G20   29.98R THUNDER
ORANGE*          N/A     81  77  89 SE5       29.95R
GORDONSVILLE*  CLOUDY    79  77  95 CALM      29.94R
WARRENTON*     PTSUNNY   82  71  68 W5        29.94R THUNDER

$$

VAZ055>057-302300-
NORTH AND CENTRAL PIEDMONT

CITY           SKY/WX    TMP DP  RH WIND       PRES   REMARKS
FREDERICKSBRG* FAIR      83  74  76 S9        29.94R
STAFFORD*      FAIR      80  72  75 S7        29.97R

$$

NCZ024-NYZ072-PAZ021-071-VAZ022-071-302300-
OTHER REGIONAL OBSERVATIONS

CITY           SKY/WX    TMP DP  RH WIND       PRES   REMARKS
NEW YORK CITY  LGT RAIN  74  72  93 CALM      30.04F FOG
PHILADELPHIA   LGT RAIN  79  71  76 S8        29.98S
PITTSBURGH     PTSUNNY   80  65  59 CALM      29.94S
ROANOKE        FAIR      86  70  58 S5        29.96F HX  90
RICHMOND       PTSUNNY   79  74  84 SE20      29.94R
RALEIGH        PTSUNNY   84  78  82 CALM      29.93S HX  95

$$

ANZ530>537-302300-
MARINE OBSERVATIONS

STATION/POSITION TIME  TEMP    WIND        PRES
                       AIR SEA DIR/SP/G
                 (UTC) (F)     (DEG/KT/KT) (MB)
THOMAS PT LIGHT  2200   83 83  160/ 22/ 26 1014.6R
BALT KEY BRIDGE  2142   83     150/ 19/ 20 1012.7R
COVE POINT       2142   81     180/ 21/ 24 1014.9R
LEWISETTA        2142   81 86  190/ 13/ 17 1013.6R
SOLOMONS ISLAND  2148      86  170/ 16/ 18   N/A
PINEY POINT      2148          180/ 17/ 20   N/A

$$





USA.gov is the U.S. government's official web portal to all federal, state and local government web resources and services.